KR4BRU Weather Reports


time (UTC)temp
C
wind
direction
speed
KPH
gust
KPH
rain 1hr
cm
rain 24hr
cm
rain mn
cm
humidity
%
barometer
mb
20260504041231 11 57 1.6 1.6 0.00 0.00 0.00 64 1014.4
20260504040232 12 72 0.0 3.2 0.00 0.00 0.00 63 1014.4
20260504035231 12 74 0.0 3.2 0.00 0.00 0.00 62 1014.1
20260504034225 12 52 1.6 1.6 0.00 0.00 0.00 61 1014.3
20260504033220 12 61 0.0 3.2 0.00 0.00 0.00 60 1014.2
20260504032220 12 89 0.0 3.2 0.00 0.00 0.00 59 1014.3
20260504031219 12 57 3.2 3.2 0.00 0.00 0.00 58 1014.1
20260504030218 12 22 0.0 3.2 0.00 0.00 0.00 57 1014.0
20260504025217 12 58 0.0 0.0 0.00 0.00 0.00 57 1013.9
20260504024217 12 45 3.2 3.2 0.00 0.00 0.00 56 1013.9
20260504023215 12 113 0.0 1.6 0.00 0.00 0.00 54 1013.5
20260504022214 12 44 0.0 1.6 0.00 0.00 0.00 54 1013.5
20260504021214 12 49 0.0 0.0 0.00 0.00 0.00 54 1013.6
20260504020214 13 38 0.0 0.0 0.00 0.00 0.00 54 1013.7
20260504015212 13 45 0.0 1.6 0.00 0.00 0.00 53 1013.6
20260504014211 13 54 0.0 3.2 0.00 0.00 0.00 53 1013.5
20260504013212 13 309 0.0 0.0 0.00 0.00 0.00 54 1013.5
20260504012206 13 17 0.0 0.0 0.00 0.00 0.00 52 1013.3
20260504011205 13 42 0.0 1.6 0.00 0.00 0.00 51 1013.2
20260504010203 14 66 0.0 0.0 0.00 0.00 0.00 51 1013.4
20260504005203 14 50 0.0 1.6 0.00 0.00 0.00 49 1013.2
20260504004157 15 44 0.0 0.0 0.00 0.00 0.00 48 1013.1
20260504003156 15 322 0.0 0.0 0.00 0.00 0.00 47 1013.1
20260504002156 16 322 0.0 0.0 0.00 0.00 0.00 45 1013.1
20260504001156 16 345 0.0 0.0 0.00 0.00 0.00 42 1013.1
20260504000156 17 0 0.0 0.0 0.00 0.00 0.00 41 1012.9
20260503235151 18 22 0.0 1.6 0.00 0.00 0.00 39 1013.0
20260503234147 18 0 0.0 1.6 0.00 0.00 0.00 40 1013.1
20260503233145 19 324 0.0 3.2 0.00 0.00 0.00 37 1013.1
20260503232145 20 70 0.0 3.2 0.00 0.00 0.00 38 1013.2
20260503231145 20 253 0.0 3.2 0.00 0.00 0.00 31 1013.2
20260503230145 20 48 0.0 4.8 0.00 0.00 0.00 31 1013.3
20260503225142 20 180 0.0 6.4 0.00 0.00 0.00 31 1013.1
20260503224137 21 248 0.0 3.2 0.00 0.00 0.00 31 1013.3
20260503223137 21 60 3.2 3.2 0.00 0.00 0.00 30 1013.3
20260503222132 21 159 3.2 9.7 0.00 0.00 0.00 31 1013.4
20260503221127 21 227 1.6 4.8 0.00 0.00 0.00 31 1013.5
20260503220126 21 69 0.0 3.2 0.00 0.00 0.00 32 1013.3
20260503215126 21 181 4.8 4.8 0.00 0.00 0.00 33 1013.4
20260503214120 21 117 8.0 19.3 0.00 0.00 0.00 32 1013.6
20260503213116 21 212 1.6 11.3 0.00 0.00 0.00 32 1013.8
20260503212111 21 11 3.2 8.0 0.00 0.00 0.00 32 1013.8
20260503211109 21 185 3.2 4.8 0.00 0.00 0.00 33 1013.9
20260503210108 20 52 1.6 14.5 0.00 0.00 0.00 32 1014.0
20260503205107 21 136 6.4 8.0 0.00 0.00 0.00 30 1014.1
20260503204101 21 136 6.4 8.0 0.00 0.00 0.00 30 1014.4
20260503203101 21 54 4.8 11.3 0.00 0.00 0.00 29 1014.4
20260503202056 21 76 4.8 9.7 0.00 0.00 0.00 28 1014.9
20260503201051 21 158 4.8 19.3 0.00 0.00 0.00 27 1015.0
20260503200050 21 190 3.2 8.0 0.00 0.00 0.00 26 1015.2
20260503195050 21 216 0.0 12.9 0.00 0.00 0.00 28 1015.4
20260503194047 21 227 4.8 9.7 0.00 0.00 0.00 28 1015.5
20260503193044 22 224 9.7 11.3 0.00 0.00 0.00 28 1015.6
20260503192042 21 276 1.6 14.5 0.00 0.00 0.00 30 1015.7
20260503191042 21 119 8.0 11.3 0.00 0.00 0.00 32 1015.9
20260503190042 20 124 8.0 16.1 0.00 0.00 0.00 31 1016.0
20260503185038 20 315 11.3 11.3 0.00 0.00 0.00 33 1016.1
20260503184037 20 237 6.4 9.7 0.00 0.00 0.00 33 1016.2
20260503183037 18 192 4.8 19.3 0.00 0.00 0.00 33 1016.6
20260503182033 20 55 0.0 8.0 0.00 0.00 0.00 33 1016.7
20260503181032 20 323 1.6 4.8 0.00 0.00 0.00 31 1016.7
20260503180026 19 105 4.8 6.4 0.00 0.00 0.00 32 1016.7
20260503175026 20 163 3.2 4.8 0.00 0.00 0.00 31 1016.9
20260503174026 20 131 3.2 6.4 0.00 0.00 0.00 33 1017.4
20260503173023 20 336 1.6 6.4 0.00 0.00 0.00 30 1017.4
20260503172024 18 133 3.2 14.5 0.00 0.00 0.00 35 1017.6
20260503171018 20 347 0.0 4.8 0.00 0.00 0.00 30 1017.7
20260503150948 18 2 0.0 4.8 0.00 0.00 0.00 38 1018.6
20260503130921 13 79 3.2 4.8 0.00 0.00 0.00 60 1018.5
20260503080813 7 86 3.2 4.8 0.00 0.00 0.00 82 1016.0
20260503072805 8 47 3.2 3.2 0.00 0.00 0.00 80 1015.7
20260503071803 8 0 0.0 3.2 0.00 0.00 0.00 80 1015.6
20260503070803 8 89 0.0 3.2 0.00 0.00 0.00 80 1015.7
20260503054743 8 67 3.2 4.8 0.00 0.00 0.00 78 1015.5
20260503053744 8 104 3.2 3.2 0.00 0.00 0.00 78 1015.5
20260503052744 8 80 3.2 3.2 0.00 0.00 0.00 77 1015.6
20260503051742 9 89 1.6 3.2 0.00 0.00 0.00 77 1015.4
20260503050736 8 60 1.6 3.2 0.00 0.00 0.00 76 1015.3
20260503045736 9 82 3.2 3.2 0.00 0.00 0.00 74 1015.2
20260503044736 10 112 1.6 3.2 0.00 0.00 0.00 73 1015.3
20260503043730 10 52 1.6 3.2 0.00 0.00 0.00 72 1015.1
20260503042729 10 108 1.6 3.2 0.00 0.00 0.00 71 1014.9